Weather History for Port Hedland, WE

Change the Weather History Date:

Sunday, December 25, 2011

  Actual Average Record
Temperature  
Mean Temperature 87 °F -  
Max Temperature 95 °F 97 °F 111 °F (1998)
Min Temperature 79 °F 78 °F 73 °F (2002)
Cooling Degree Days 22    
Growing Degree Days 37 (Base 50)    
Moisture  
Dew Point 78 °F    
Average Humidity 75    
Maximum Humidity 94    
Minimum Humidity 50    
Precipitation  
Precipitation 0.00 in 0.07 in - ()
Sea Level Pressure  
Sea Level Pressure 29.62 in    
Wind  
Wind Speed 11 mph ()    
Max Wind Speed 18 mph    
Max Gust Speed -    
Visibility 6.1 miles    
Events      
Averages and records for this station are not official NWS values.
T = Trace of Precipitation, MM = Missing Value Source: Averaged Metar Reports

Daily Weather History Graph

Daily Weather History Graph

Search for Another Location

Airport:

Trip Planner

Search our weather history database for the weather conditions in past years. The results will help you decide how hot, cold, wet, or windy it might be!

Date:

Astronomy

Dec. 25, 2011 Rise Set
Actual Time 5:24 AM WST 6:46 PM WST
Civil Twilight 4:59 AM WST 7:10 PM WST
Nautical Twilight 4:30 AM WST 7:40 PM WST
Astronomical Twilight 3:59 AM WST 8:10 PM WST
Moon 5:40 AM WST (12/25) 7:16 PM WST (12/25)
Length of Visible Light 14h 11m
Length of Day
13h 22m
Waxing Crescent, 0% of the Moon is Illuminated
Dec 25
Waxing Crescent
Jan 1
First Quarter
Jan 9
Full
Jan 16
Last Quarter
Jan 23
New

Hourly Weather History & Observations

Time (WST) Temp. Heat Index Dew Point Humidity Pressure Visibility Wind Dir Wind Speed Gust Speed Precip Events Conditions
12:00 AM 82 °F - 78 °F 85% 29.66 in - West 10.4 mph - -  
12:00 AM 82.4 °F 92.4 °F 78.8 °F 89% 29.65 in 6.2 mi West 10.4 mph - N/A   Unknown
12:30 AM 82.4 °F 92.4 °F 78.8 °F 89% 29.65 in 6.2 mi West 5.8 mph - N/A   Unknown
1:00 AM 82.4 °F 92.4 °F 78.8 °F 89% 29.65 in 6.2 mi West 8.1 mph - N/A   Unknown
1:30 AM 82.4 °F 90.9 °F 77.0 °F 84% 29.62 in 6.2 mi West 9.2 mph - N/A   Unknown
2:00 AM 82 °F - 78 °F 83% 29.64 in - West 8.1 mph - -  
2:00 AM 82.4 °F 90.9 °F 77.0 °F 84% 29.62 in 6.2 mi West 8.1 mph - N/A   Unknown
2:30 AM 80.6 °F 87.1 °F 77.0 °F 89% 29.62 in 6.2 mi West 6.9 mph - N/A   Unknown
3:00 AM 81 °F - 77 °F 85% 29.64 in - West 6.9 mph - -  
3:00 AM 80.6 °F 87.1 °F 77.0 °F 89% 29.62 in 6.2 mi West 6.9 mph - N/A   Unknown
3:30 AM 80.6 °F 87.1 °F 77.0 °F 89% 29.62 in 6.2 mi West 8.1 mph - N/A   Unknown
4:00 AM 80.6 °F 87.1 °F 77.0 °F 89% 29.62 in 6.2 mi WNW 6.9 mph - N/A   Unknown
4:30 AM 80.6 °F 87.1 °F 77.0 °F 89% 29.62 in 6.2 mi West 6.9 mph - N/A   Unknown
5:00 AM 80 °F - 78 °F 91% 29.63 in - WSW 4.6 mph - -  
5:00 AM 80.6 °F 87.1 °F 77.0 °F 89% 29.62 in 6.2 mi WSW 4.6 mph - N/A   Unknown
5:30 AM 78.8 °F - 77.0 °F 94% 29.62 in 6.2 mi WSW 5.8 mph - N/A   Unknown
6:00 AM 80 °F - 78 °F 91% 29.63 in 7 mi WNW 4.6 mph - -   Haze
6:00 AM 80.6 °F 88.1 °F 78.8 °F 94% 29.62 in - WNW 4.6 mph - N/A   Clear
6:30 AM 84.2 °F 98.3 °F 80.6 °F 89% 29.62 in - NNW 5.8 mph - N/A   Clear
7:00 AM 87.8 °F 102.5 °F 78.8 °F 75% 29.65 in - NW 8.1 mph - N/A   Clear
7:30 AM 89.6 °F 102.2 °F 77.0 °F 66% 29.65 in - NW 11.5 mph - N/A   Clear
8:00 AM 89 °F - 77 °F 60% 29.68 in - NW 13.8 mph - -  
8:00 AM 89.6 °F 102.2 °F 77.0 °F 66% 29.68 in 6.2 mi NW 13.8 mph - N/A   Partly Cloudy
8:30 AM 89.6 °F 102.2 °F 77.0 °F 66% 29.68 in 6.2 mi NNW 13.8 mph - N/A   Partly Cloudy
9:00 AM 90 °F - 78 °F 60% 29.68 in 9 mi WNW 12.7 mph - -   Haze
9:00 AM 89.6 °F 104.7 °F 78.8 °F 70% 29.68 in 6.2 mi WNW 12.7 mph - N/A   Partly Cloudy
9:30 AM 91.4 °F 107.2 °F 78.8 °F 66% 29.65 in 6.2 mi NNW 12.7 mph - N/A   Unknown
10:00 AM 91.4 °F 107.2 °F 78.8 °F 66% 29.65 in 6.2 mi NW 17.3 mph - N/A   Unknown
10:30 AM 91.4 °F 105.1 °F 77.0 °F 63% 29.65 in 6.2 mi NNW 12.7 mph - N/A   Partly Cloudy
11:00 AM 93 °F - 77 °F 52% 29.65 in - NNW 13.8 mph - -  
11:00 AM 93.2 °F 107.2 °F 77.0 °F 59% 29.65 in 6.2 mi NNW 13.8 mph - N/A   Partly Cloudy
11:30 AM 91.4 °F 105.1 °F 77.0 °F 63% 29.62 in 6.2 mi NW 15.0 mph - N/A   Partly Cloudy
12:00 PM 92 °F - 77 °F 54% 29.63 in 9 mi NW 15.0 mph - -   Haze
12:00 PM 93.2 °F 107.2 °F 77.0 °F 59% 29.62 in 6.2 mi NW 15.0 mph - N/A   Partly Cloudy
12:30 PM 93.2 °F 107.2 °F 77.0 °F 59% 29.62 in 6.2 mi NNW 15.0 mph - N/A   Partly Cloudy
1:00 PM 93.2 °F 107.2 °F 77.0 °F 59% 29.62 in 6.2 mi NW 13.8 mph - N/A   Partly Cloudy
1:30 PM 93.2 °F 110.2 °F 78.8 °F 63% 29.59 in 6.2 mi NW 16.1 mph - N/A   Partly Cloudy
2:00 PM 95 °F - 78 °F 50% 29.60 in - NW 16.1 mph - -  
2:00 PM 95.0 °F 112.2 °F 78.8 °F 59% 29.59 in 6.2 mi NW 16.1 mph - N/A   Partly Cloudy
2:30 PM 95.0 °F 109.7 °F 77.0 °F 56% 29.59 in 6.2 mi NW 17.3 mph - N/A   Partly Cloudy
3:00 PM 94 °F - 77 °F 50% 29.57 in 19 mi NW 18.4 mph - -   Haze
3:00 PM 95.0 °F 109.7 °F 77.0 °F 56% 29.56 in 6.2 mi NW 18.4 mph - N/A   Partly Cloudy
3:30 PM 93.2 °F 110.2 °F 78.8 °F 63% 29.56 in 6.2 mi NW 18.4 mph - N/A   Unknown
4:00 PM 91.4 °F 105.1 °F 77.0 °F 63% 29.56 in 6.2 mi NNW 16.1 mph - N/A   Unknown
4:30 PM 89.6 °F 104.7 °F 78.8 °F 70% 29.56 in 6.2 mi NNW 16.1 mph - N/A   Unknown
5:00 PM 89 °F - 78 °F 62% 29.58 in - NNW 18.4 mph - -  
5:00 PM 89.6 °F 102.2 °F 77.0 °F 66% 29.56 in 6.2 mi NNW 18.4 mph - N/A   Unknown
5:30 PM 87.8 °F 102.5 °F 78.8 °F 75% 29.56 in 6.2 mi NNW 18.4 mph - N/A   Unknown
6:00 PM 87 °F - 78 °F 69% 29.59 in - NNW 17.3 mph - -  
6:00 PM 87.8 °F 102.5 °F 78.8 °F 75% 29.56 in 6.2 mi NNW 17.3 mph - N/A   Unknown
6:30 PM 86.0 °F 99.3 °F 78.8 °F 79% 29.59 in 5.6 mi NW 17.3 mph - N/A   Unknown
7:00 PM 84.2 °F 96.1 °F 78.8 °F 84% 29.59 in 5.0 mi NW 17.3 mph - N/A   Unknown
7:30 PM 84.2 °F 96.1 °F 78.8 °F 84% 29.59 in 5.0 mi NW 15.0 mph - N/A   Unknown
8:00 PM 84 °F - 79 °F 81% 29.60 in - NW 17.3 mph - -  
8:00 PM 84.2 °F 96.1 °F 78.8 °F 84% 29.59 in 4.3 mi NW 17.3 mph - N/A   Unknown
8:30 PM 84.2 °F 96.1 °F 78.8 °F 84% 29.59 in 4.3 mi NW 17.3 mph - N/A   Unknown
9:00 PM 83 °F - 79 °F 84% 29.60 in 4 mi NW 17.3 mph - -  
9:00 PM 84.2 °F 96.1 °F 78.8 °F 84% 29.59 in 4.3 mi NW 17.3 mph - N/A   Unknown
9:30 PM 84.2 °F 96.1 °F 78.8 °F 84% 29.62 in 4.3 mi NW 15.0 mph - N/A   Unknown
10:00 PM 84.2 °F 96.1 °F 78.8 °F 84% 29.62 in 4.3 mi WNW 16.1 mph - N/A   Unknown
10:30 PM 84.2 °F 96.1 °F 78.8 °F 84% 29.62 in 4.3 mi WNW 17.3 mph - N/A   Unknown
11:00 PM 83 °F - 79 °F 84% 29.63 in - WNW 16.1 mph - -  
11:00 PM 84.2 °F 96.1 °F 78.8 °F 84% 29.62 in 4.3 mi WNW 16.1 mph - N/A   Unknown
11:03 PM 84.2 °F 96.1 °F 78.8 °F 84% 29.62 in 4.3 mi West 16.1 mph - N/A   Mostly Cloudy
11:16 PM 84.2 °F 96.1 °F 78.8 °F 84% 29.62 in 5.0 mi WNW 16.1 mph - N/A   Unknown
11:30 PM 84.2 °F 96.1 °F 78.8 °F 84% 29.62 in 5.0 mi West 15.0 mph - N/A   Unknown